Wind_Speed
51 61 59 68 46 57 63 63 59 49 45 45 44 43 43 43 41 43 44 42 41 42 46 56 52 49 47 39 44 37 35 31 29 28 27 26 25 24 23 22 24 25 23
55 49 46 44 61 52 56 55 55 51 49 49 47 46 46 45 44 44 39 39 41 44 48 55 50 50 53 55 49 42 37 34 32 30 30 29 27 26 25 25 26 26 25
46 42 50 46 41 47 52 54 56 54 52 51 50 49 49 47 48 44 41 44 37 39 43 52 55 61 60 61 61 48 41 38 36 34 33 30 29 27 27 28 28 29 25
39 40 37 53 52 54 56 58 52 54 53 55 53 54 51 49 50 49 46 47 50 39 45 47 55 54 55 57 52 48 43 41 38 37 35 32 30 29 29 30 30 31 28
31 30 33 40 57 51 53 56 51 55 54 57 58 55 52 50 51 51 50 46 46 49 48 47 51 51 53 54 48 46 44 43 42 41 36 34 32 31 31 32 31 32 32
30 28 27 36 46 66 48 56 52 53 51 52 54 53 52 52 51 52 50 49 48 54 52 45 49 48 50 57 51 47 44 42 40 38 38 35 32 33 33 33 33 32 34
28 30 29 32 46 65 62 59 55 52 53 53 54 55 55 50 48 47 52 50 47 50 48 52 51 48 53 53 55 52 48 45 42 43 39 35 33 36 35 35 34 35 34
34 34 32 30 46 56 58 66 60 59 56 51 53 50 52 49 52 53 51 52 50 52 52 48 51 51 51 55 54 53 49 46 43 42 36 36 36 33 35 35 33 34 39
35 34 35 29 39 59 69 63 57 60 64 52 56 49 48 50 54 51 55 52 51 50 47 49 51 54 51 55 56 56 52 47 44 38 38 37 36 40 35 33 35 38 47
27 31 31 30 30 50 58 58 60 59 63 59 57 52 47 47 44 46 48 48 51 52 47 50 56 57 52 50 51 52 52 51 48 43 40 40 39 38 37 39 41 44 39
21 26 25 26 25 33 50 56 66 69 62 63 59 57 50 49 49 46 55 60 54 50 50 55 55 54 46 44 43 41 44 47 42 39 42 42 39 38 37 41 40 35 32
19 23 23 25 24 24 31 42 52 58 53 56 53 52 51 50 48 51 50 51 46 45 47 51 52 43 41 40 42 40 39 40 43 45 41 44 44 45 39 37 35 34 36
17 20 22 24 27 27 28 33 41 48 56 54 57 54 55 57 40 44 51 51 48 42 45 43 39 37 35 36 40 41 42 45 44 43 45 45 43 34 39 38 37 37 43
15 19 21 25 27 27 30 29 32 41 47 50 53 58 52 47 44 45 49 47 44 44 43 42 39 38 37 37 38 48 51 49 46 45 37 38 37 35 36 40 40 41 40
14 17 19 23 25 27 27 29 29 37 43 51 54 59 61 57 49 44 50 53 48 43 44 44 45 45 42 40 40 40 45 41 36 35 40 36 35 37 40 41 39 37 33
14 16 19 20 21 26 27 27 31 32 39 46 51 55 55 59 51 41 44 45 48 46 50 52 50 44 43 41 41 40 40 36 36 40 41 37 35 37 38 36 32 32 33
13 15 18 19 20 24 27 26 27 30 34 41 46 49 48 49 52 49 44 43 36 38 43 52 52 46 42 41 40 39 37 37 40 40 37 36 37 33 31 31 32 31 28
11 13 15 18 19 22 26 25 26 29 32 37 44 47 51 46 50 49 44 38 38 39 38 42 44 40 40 37 34 37 38 38 38 38 37 32 29 30 31 28 25 21 18
12 12 14 16 16 20 24 24 26 28 30 32 40 47 49 51 48 48 44 44 43 38 36 40 38 35 33 30 33 36 38 37 33 30 29 28 26 28 25 21 19 17 15
13 12 12 15 15 19 21 22 24 28 29 30 34 42 50 49 53 54 49 47 47 43 40 38 36 35 36 37 38 37 34 32 30 28 23 22 25 22 20 19 18 17 16
12 13 12 12 14 17 19 20 21 26 30 29 29 33 39 49 50 53 57 54 51 49 44 41 41 40 36 35 35 36 32 28 28 28 25 25 23 23 22 20 17 16 17
13 12 13 12 12 14 17 18 19 23 29 31 29 29 32 38 46 47 52 56 56 53 48 45 43 40 39 40 40 39 31 32 32 30 27 26 26 24 21 18 17 19 20
13 13 12 12 12 14 15 18 18 20 24 29 32 30 29 31 39 43 47 52 54 54 57 53 50 48 48 45 44 41 37 34 34 31 26 27 26 24 22 20 21 21 22
14 13 13 13 13 13 14 16 18 19 22 25 30 34 33 31 32 37 44 48 52 56 56 54 49 47 45 44 42 42 43 40 37 30 29 31 28 25 23 22 22 22 20
13 14 13 12 12 13 13 15 17 19 21 23 26 30 35 36 34 32 34 41 46 51 53 53 51 50 47 45 45 44 41 38 36 32 33 31 28 26 24 22 21 19 18
13 13 13 13 12 13 15 16 15 17 20 21 24 27 31 35 36 35 34 35 38 41 44 46 48 47 46 43 39 37 35 35 34 34 34 31 28 25 23 20 19 18 18
Wind_Direction
222 224 222 222 220 210 225 218 223 226 222 215 218 219 219 222 224 214 223 224 223 216 218 221 223 226 227 229 234 229 231 233 234 235 238 240 244 251 257 262 267 272 278
218 225 226 224 220 218 219 215 219 222 219 215 215 215 218 220 221 221 217 222 219 218 220 222 226 224 230 231 233 233 232 233 234 235 238 241 245 251 257 263 267 274 277
222 235 234 234 230 207 218 216 214 219 214 214 212 215 217 219 221 222 222 228 229 222 222 222 225 227 231 232 232 229 232 233 235 236 239 242 246 253 260 266 271 276 280
220 227 236 235 236 227 219 215 208 214 213 213 213 216 218 220 222 222 223 220 226 230 222 229 233 233 233 231 223 228 229 233 236 238 240 243 248 255 262 268 273 276 283
229 228 240 253 221 213 208 209 211 215 214 216 215 217 220 225 224 223 222 226 226 228 228 229 236 224 227 221 224 229 231 232 234 238 241 245 250 257 262 268 274 276 279
241 229 243 235 219 216 207 210 215 211 217 216 218 220 223 222 226 225 225 230 227 227 230 227 230 226 228 225 218 226 229 236 239 243 242 245 250 258 264 272 273 282 285
227 224 228 229 214 215 217 214 213 210 218 216 218 221 223 226 226 226 224 227 224 224 230 227 232 238 232 231 229 219 226 229 232 238 242 246 251 256 265 270 275 284 287
224 223 225 234 217 213 217 219 209 214 214 218 219 218 221 227 228 224 226 230 229 228 231 230 231 233 235 237 231 222 223 228 233 239 244 247 251 261 268 271 274 281 285
221 229 229 230 221 217 218 222 220 211 210 215 225 220 229 229 226 234 228 230 229 230 234 231 228 233 236 233 232 225 224 226 229 232 240 247 253 255 262 273 278 278 281
212 224 223 219 222 211 214 222 220 216 216 213 218 221 225 230 228 227 221 225 231 234 232 228 226 228 232 236 238 234 224 223 226 232 238 246 248 256 267 274 274 276 279
217 221 221 217 219 212 211 211 211 217 205 210 217 219 223 229 228 224 226 226 228 235 235 228 222 223 227 232 237 241 244 235 226 230 235 241 248 254 265 264 271 266 271
226 225 224 221 223 221 215 215 213 208 206 203 213 217 218 220 226 227 227 223 225 234 232 225 217 218 223 228 231 223 206 212 222 228 234 244 249 257 260 262 259 266 279
238 231 226 228 225 227 224 218 216 212 211 214 209 214 219 221 213 219 216 218 223 219 220 215 207 214 215 220 221 214 208 215 222 230 237 246 252 245 250 255 262 274 286
242 236 226 226 227 227 223 222 218 217 215 209 210 208 209 209 214 213 213 204 206 211 208 202 205 211 217 221 223 216 213 217 224 234 241 239 243 248 250 259 271 280 283
248 240 232 224 222 228 222 219 224 223 221 215 212 210 212 210 209 206 208 210 205 209 199 197 204 207 213 216 218 215 218 221 224 230 235 240 243 249 258 267 272 275 272
255 244 235 229 218 223 220 218 222 225 222 219 215 211 206 203 200 205 206 211 210 213 214 214 213 212 217 220 220 222 216 222 226 227 235 240 251 259 262 264 267 270 275
255 249 240 231 224 222 220 215 217 222 223 221 214 208 196 196 197 193 195 205 209 210 212 212 211 213 224 222 218 219 219 223 226 230 238 244 250 251 256 262 266 268 273
259 252 243 235 229 225 223 214 215 220 222 220 217 212 203 196 191 188 193 197 198 208 207 207 212 219 215 212 210 216 220 217 220 226 235 238 244 254 263 266 263 263 261
262 253 244 238 231 226 224 216 211 216 218 218 218 216 210 198 197 197 192 197 203 201 200 201 200 200 197 198 199 199 205 213 221 226 232 240 254 261 253 250 249 248 245
261 256 244 242 236 228 225 219 212 211 213 215 217 217 215 207 200 198 200 202 198 202 207 199 201 204 203 202 201 202 207 216 224 230 240 259 262 246 240 236 237 238 248
254 256 252 243 237 230 228 225 215 211 211 211 213 217 214 217 206 203 198 199 204 202 205 203 201 199 200 204 205 207 214 222 225 234 249 264 247 232 225 229 231 242 261
252 245 249 248 238 230 230 227 220 212 211 208 207 212 214 212 214 209 202 203 200 200 200 202 202 202 201 210 211 208 225 219 226 248 252 254 232 224 224 226 239 252 265
256 251 247 247 244 232 225 227 223 216 212 210 206 205 209 210 212 214 210 206 206 204 203 203 208 211 211 207 216 221 220 229 236 242 253 232 223 220 223 234 246 259 269
253 251 242 238 237 236 224 223 223 217 214 213 209 205 204 208 208 212 215 212 209 208 209 206 204 207 212 211 212 216 219 224 231 242 237 222 219 222 229 239 251 261 270
249 248 245 240 233 232 234 221 221 218 214 213 210 207 206 205 207 204 206 211 208 205 203 200 201 200 201 210 211 212 217 228 241 244 222 218 221 226 235 243 252 260 267
248 245 242 238 230 222 223 228 217 214 211 211 211 208 207 207 208 205 201 200 202 201 196 193 194 197 199 201 206 211 218 232 238 220 214 219 225 232 238 244 250 257 264
Height
2934 2940 2948 2958 2962 2967 2977 2989 2999 3009 3016 3024 3031 3039 3045 3051 3058 3064 3069 3075 3079 3084 3090 3099 3108 3115 3119 3123 3129 3132 3135 3140 3145 3149 3153 3155 3156 3157 3158 3158 3159 3159 3158
2923 2930 2937 2947 2954 2958 2965 2975 2987 2998 3007 3015 3022 3030 3037 3043 3049 3056 3060 3066 3072 3077 3084 3092 3099 3106 3112 3118 3123 3126 3129 3134 3140 3143 3147 3149 3151 3152 3153 3154 3153 3153 3152
2913 2920 2926 2933 2936 2946 2957 2966 2977 2988 2996 3006 3013 3019 3026 3034 3041 3047 3053 3060 3067 3072 3078 3084 3092 3098 3101 3105 3113 3119 3123 3128 3133 3137 3140 3143 3145 3146 3147 3148 3148 3148 3146
2903 2910 2916 2924 2932 2938 2947 2957 2967 2977 2986 2995 3002 3009 3017 3025 3032 3039 3045 3051 3058 3065 3070 3076 3082 3087 3093 3098 3105 3111 3115 3121 3125 3130 3133 3137 3139 3141 3141 3141 3141 3142 3140
2906 2912 2912 2916 2925 2930 2936 2949 2959 2967 2976 2985 2992 2999 3007 3014 3021 3028 3035 3043 3049 3055 3062 3068 3073 3078 3084 3090 3096 3104 3107 3111 3117 3122 3126 3130 3133 3135 3134 3134 3134 3134 3133
2889 2885 2900 2908 2912 2920 2929 2940 2949 2959 2966 2974 2981 2988 2996 3004 3012 3019 3027 3034 3040 3046 3052 3060 3064 3069 3074 3079 3086 3093 3099 3105 3110 3114 3119 3123 3126 3127 3125 3127 3128 3126 3126
2887 2894 2899 2903 2906 2913 2922 2932 2940 2949 2957 2964 2972 2979 2985 2993 3001 3010 3018 3024 3031 3037 3043 3049 3054 3059 3064 3071 3075 3082 3088 3094 3100 3107 3112 3117 3117 3118 3119 3120 3119 3118 3118
2884 2889 2893 2895 2897 2904 2912 2921 2929 2939 2947 2956 2962 2970 2978 2984 2993 3001 3009 3016 3020 3026 3033 3039 3046 3051 3056 3061 3065 3071 3080 3086 3094 3102 3106 3108 3109 3110 3111 3112 3112 3113 3114
2877 2878 2884 2888 2887 2894 2901 2910 2917 2927 2937 2943 2952 2961 2968 2975 2984 2991 2998 3002 3007 3014 3021 3029 3034 3041 3045 3052 3055 3062 3070 3079 3087 3090 3095 3099 3102 3105 3105 3106 3105 3106 3105
2873 2879 2880 2882 2883 2885 2892 2899 2908 2916 2925 2934 2944 2951 2959 2966 2974 2981 2988 2991 2997 3003 3010 3015 3022 3029 3035 3041 3049 3054 3060 3069 3077 3082 3088 3092 3094 3095 3096 3097 3098 3098 3097
2867 2870 2870 2872 2877 2878 2883 2889 2899 2908 2914 2923 2931 2939 2949 2955 2963 2969 2975 2979 2987 2994 2998 3004 3011 3019 3026 3033 3041 3047 3054 3061 3067 3074 3079 3082 3084 3086 3088 3090 3091 3090 3088
2857 2855 2856 2860 2865 2871 2876 2881 2887 2896 2902 2911 2921 2930 2938 2946 2953 2959 2965 2970 2978 2984 2989 2997 3003 3011 3020 3026 3032 3038 3044 3052 3058 3065 3069 3073 3076 3078 3080 3082 3083 3082 3081
2843 2843 2844 2848 2857 2867 2871 2874 2878 2885 2893 2902 2910 2920 2929 2937 2942 2948 2954 2962 2969 2976 2982 2987 2994 3003 3011 3016 3023 3029 3037 3044 3050 3056 3061 3066 3067 3067 3071 3074 3076 3075 3073
2837 2841 2845 2849 2853 2859 2864 2867 2871 2877 2885 2892 2900 2909 2916 2924 2933 2938 2944 2951 2959 2966 2972 2979 2987 2994 3002 3009 3014 3020 3028 3036 3042 3048 3053 3055 3058 3061 3064 3066 3066 3065 3064
2836 2838 2841 2846 2849 2854 2856 2859 2864 2870 2876 2883 2890 2898 2906 2915 2923 2930 2937 2942 2951 2958 2967 2972 2976 2981 2989 2998 3004 3012 3021 3028 3035 3040 3044 3048 3052 3054 3056 3057 3056 3056 3055
2832 2836 2838 2842 2842 2846 2849 2852 2857 2863 2869 2875 2881 2889 2896 2904 2913 2921 2930 2937 2943 2951 2956 2962 2968 2974 2982 2990 2997 3005 3013 3021 3028 3032 3037 3041 3044 3047 3047 3048 3049 3048 3048
2832 2831 2833 2832 2834 2840 2844 2846 2851 2856 2860 2867 2873 2879 2887 2896 2901 2911 2921 2930 2937 2942 2945 2952 2961 2967 2975 2982 2990 2998 3007 3014 3021 3026 3030 3033 3036 3037 3039 3041 3041 3041 3040
2827 2826 2827 2828 2831 2834 2838 2839 2843 2849 2855 2859 2865 2873 2879 2886 2895 2902 2911 2921 2927 2932 2940 2948 2955 2962 2969 2976 2983 2991 3000 3007 3013 3017 3021 3025 3028 3030 3031 3032 3032 3032 3033
2823 2823 2825 2827 2828 2830 2833 2834 2838 2844 2848 2852 2858 2864 2873 2880 2887 2896 2904 2913 2921 2928 2934 2942 2949 2957 2964 2971 2979 2987 2993 2999 3004 3009 3013 3017 3019 3021 3022 3024 3025 3026 3027
2822 2821 2821 2822 2823 2825 2829 2831 2833 2836 2842 2845 2850 2856 2864 2873 2879 2887 2897 2905 2914 2923 2930 2937 2944 2951 2958 2966 2973 2980 2985 2991 2997 3002 3007 3009 3011 3014 3016 3018 3019 3020 3022
2818 2818 2816 2818 2819 2819 2822 2824 2826 2830 2835 2840 2845 2851 2857 2865 2873 2880 2889 2899 2908 2917 2925 2932 2939 2946 2953 2961 2967 2973 2979 2985 2990 2994 2999 3002 3004 3007 3009 3011 3013 3015 3016
2813 2813 2815 2813 2812 2814 2818 2821 2823 2826 2830 2835 2840 2846 2852 2857 2865 2873 2881 2890 2898 2908 2916 2925 2933 2941 2948 2955 2960 2966 2972 2978 2983 2988 2992 2994 2997 3000 3003 3006 3008 3010 3010
2803 2803 2803 2806 2810 2813 2813 2816 2819 2821 2825 2831 2836 2841 2847 2851 2857 2867 2873 2880 2888 2897 2905 2914 2923 2931 2939 2946 2953 2960 2967 2972 2977 2981 2984 2987 2990 2994 2997 3000 3003 3004 3004
2798 2800 2804 2807 2807 2807 2809 2812 2815 2817 2822 2828 2831 2835 2841 2847 2852 2859 2866 2872 2879 2887 2895 2904 2913 2922 2930 2937 2945 2952 2958 2962 2968 2972 2976 2979 2983 2988 2991 2993 2995 2996 2996
2796 2798 2798 2798 2800 2800 2804 2808 2811 2815 2819 2823 2826 2830 2836 2842 2849 2854 2859 2866 2871 2878 2886 2894 2903 2912 2921 2930 2937 2943 2950 2955 2960 2963 2968 2973 2977 2981 2983 2986 2987 2988 2989
2794 2794 2794 2796 2797 2800 2805 2809 2810 2812 2815 2818 2822 2826 2831 2836 2844 2850 2855 2861 2866 2873 2880 2887 2896 2905 2913 2920 2929 2936 2941 2946 2951 2954 2960 2965 2970 2973 2976 2978 2980 2981 2982